Regional Weather Roundup
Issued by NWS Albany, NY

Home | Current Version | Previous Version | Text Only | Print | Product List | Glossary On
Versions: 1 2 3 4 5 6 7 8 9 10 11 12 13 14 15 16 17 18 19 20 21 22 23 24 25 26 27 28 29 30 31 32 33 34 35 36 37 38 39 40 41 42 43 44 45 46 47 48 49 50
000
ASUS41 KALY 282010
RWRALY

NEW YORK STATE HOURLY WEATHER ROUNDUP
NATIONAL WEATHER SERVICE ALBANY NY
400 PM EDT TUE JUL 28 2015

NOTE: "FAIR" INDICATES FEW OR NO CLOUDS BELOW 12,000 FEET WITH NO
SIGNIFICANT WEATHER AND/OR NO OBSTRUCTIONS TO VISIBILITY.

NYZ032-033-038>043-046>054-057>066-NYZ062>081-282100-
EAST


CITY           SKY/WX    TMP DP  RH WIND       PRES   REMARKS
ALBANY         PTSUNNY   91  63  39 W6        29.94S HX  92
GLENS FALLS    MOSUNNY   88  65  46 CALM      29.94S HX  90
POUGHKEEPSIE   MOSUNNY   91  59  33 VRB3      29.94S HX  90
NEWBURGH       MOSUNNY   90  64  43 CALM      29.97S HX  91
MONTGOMERY     MOSUNNY   92  66  42 VRB7      29.96S HX  94
WHITE PLAINS   MOSUNNY   89  61  38 CALM      29.96S
ISLIP          PTSUNNY   87  70  56 SW13      29.94S HX  92
NEW YORK CITY  PTSUNNY   92  63  38 SW6       29.93S HX  93
CENTRAL PARK   MOSUNNY   93  60  33 E3        29.97S HX  93
$$

NYZ005>009-017-018-044>046-055-056-282100-
CENTRAL


CITY           SKY/WX    TMP DP  RH WIND       PRES   REMARKS
FULTON         SUNNY     86  62  44 NW8       30.00S
SYRACUSE       MOSUNNY   88  63  43 N13       29.99R
ROME           PTSUNNY   87  66  49 W7G16     29.99S
ELMIRA         PTSUNNY   87  64  46 NW5       30.00S
BINGHAMTON     SUNNY     85  61  44 N9        30.04S
MONTICELLO     MOSUNNY   84  63  48 NW9       30.04R
$$

NYZ026>034-041>043-282100-
NORTH


CITY           SKY/WX    TMP DP  RH WIND       PRES   REMARKS
WATERTOWN      SUNNY     83  65  54 W9        29.98F
FORT DRUM      NOT AVBL
MASSENA        SUNNY     89  66  46 VRB7      29.93F HX  91
SARANAC LAKE   MOSUNNY   86  56  35 VRB6      30.00F
PLATTSBURGH    SUNNY     82  66  58 S7        29.94F
$$

NYZ001>004-010>016-019>021-282100-
WEST


CITY           SKY/WX    TMP DP  RH WIND       PRES   REMARKS
NIAGARA FALLS  MOSUNNY   88  62  41 NW10      29.99S
BUFFALO        MOSUNNY   88  60  38 W8        30.00S
DUNKIRK        SUNNY     84  60  44 N6        30.02F
JAMESTOWN      SUNNY     82  63  51 N9        30.07S
WELLSVILLE     SUNNY     86  54  33 VRB5      30.10S
ROCHESTER      MOSUNNY   89  68  49 VRB6      30.00S HX  93
PENN YAN       MOSUNNY   88  64  44 NW5       30.02F
$$

             KEY
       WCI = WIND CHILL INDEX
       VSB = VISIBILITY
       HX  = HEAT INDEX
$$



USA.gov is the U.S. government's official web portal to all federal, state and local government web resources and services.